Location: Amsterdam
(30.7274°N, 84.4357°W)
Time: 07:23:00
(UTC+00:00)

Transit 2A Rocket - Pass Details

Date: 22 February 2026
Orbit: 583 x 900 km, 66.7° (Epoch: 8 March)

Event Time Altitude Azimuth Distance (km) Brightness Sun altitude
Rises 04:28:29 0° 357° (N) 3,301 - -61.9°
Reaches altitude 10° 04:33:04 10° 32° (NNE) 2,274 - -62.6°
Maximum altitude 04:34:31 11° 48° (NE) 2,169 - -62.8°
Drops below altitude 10° 04:35:56 10° 65° (ENE) 2,211 - -63.0°
Sets 04:40:08 0° 101° (E) 3,033 - -63.6°
